GW3446 Weather Reports


time (UTC)temp
C
wind
direction
speed
KPH
gust
KPH
rain 1hr
cm
rain 24hr
cm
rain mn
cm
humidity
%
barometer
mb
20260507124515 2 238 6.4 16.1 0.00 0.23 0.00 92 1018.5
20260507123021 1 230 6.4 14.5 0.00 0.23 0.00 92 1018.6
20260507121526 1 225 6.4 11.3 0.00 0.23 0.00 92 1018.6
20260507120015 1 225 6.4 14.5 0.00 0.23 0.00 92 1018.5
20260507113004 1 231 8.0 16.1 0.00 0.23 0.00 93 1018.7
20260507111516 1 245 8.0 17.7 0.00 0.25 0.00 93 1018.7
20260507110014 1 267 6.4 14.5 0.00 0.25 0.00 93 1018.7
20260507104506 1 244 6.4 12.9 0.00 0.25 0.00 93 1018.7
20260507103005 1 232 4.8 11.3 0.00 0.25 0.00 92 1018.8
20260507101516 1 222 4.8 11.3 0.00 0.25 0.00 92 1019.1
20260507100016 1 242 1.6 9.7 0.00 0.25 0.00 92 1019.4
20260507094504 1 238 3.2 11.3 0.00 0.25 0.00 92 1019.4
20260507093008 1 226 4.8 11.3 0.00 0.25 0.00 92 1019.6
20260507091513 2 219 6.4 11.3 0.00 0.25 0.00 92 1019.4
20260507090020 2 225 6.4 11.3 0.00 0.25 0.00 91 1019.6
20260507084504 2 226 4.8 9.7 0.00 0.25 0.00 91 1019.9
20260507083007 2 250 4.8 8.0 0.00 0.25 0.00 91 1020.0
20260507081512 3 246 3.2 9.7 0.00 0.25 0.00 91 1020.1
20260507080019 4 284 3.2 11.3 0.00 0.25 0.00 91 1020.3
20260507074512 5 253 6.4 14.5 0.00 0.25 0.00 91 1020.5
20260507073009 5 252 4.8 14.5 0.00 0.25 0.00 92 1020.7
20260507071513 5 266 3.2 11.3 0.00 0.25 0.00 92 1020.8
20260507070020 5 259 3.2 9.7 0.00 0.28 0.00 91 1021.0
20260507064505 5 265 3.2 9.7 0.00 0.28 0.00 91 1021.1
20260507063010 5 238 4.8 12.9 0.00 0.30 0.00 90 1021.3
20260507061519 5 244 3.2 8.0 0.00 0.33 0.00 90 1021.4
20260507060019 5 271 3.2 6.4 0.00 0.33 0.00 89 1021.5
20260507054508 6 249 1.6 8.0 0.00 0.33 0.00 89 1021.6
20260507051529 6 252 3.2 9.7 0.00 0.33 0.00 88 1021.5
20260507050024 6 266 1.6 6.4 0.00 0.33 0.00 88 1021.5
20260507043013 7 267 1.6 11.3 0.00 0.33 0.33 86 1021.8
20260507041506 7 263 4.8 12.9 0.00 0.33 0.33 86 1022.0
20260507040006 7 296 1.6 11.3 0.00 0.33 0.33 86 1021.7
20260507034508 7 252 4.8 11.3 0.00 0.33 0.33 86 1021.7
20260507033003 7 263 1.6 8.0 0.00 0.33 0.33 86 1021.4
20260507031507 7 263 1.6 11.3 0.00 0.33 0.33 84 1021.3
20260507030010 7 331 1.6 4.8 0.00 0.33 0.33 84 1021.2
20260507024518 7 331 0.0 3.2 0.00 0.33 0.33 83 1020.9
20260507023003 7 331 0.0 3.2 0.00 0.33 0.33 83 1020.5
20260507021504 7 331 0.0 1.6 0.00 0.33 0.33 83 1020.4
20260507020008 7 331 0.0 1.6 0.00 0.33 0.33 82 1020.2
20260507014526 7 331 3.2 4.8 0.00 0.33 0.33 81 1020.4
20260507013002 7 331 3.2 6.4 0.00 0.33 0.33 80 1020.5
20260507011504 7 321 0.0 1.6 0.00 0.33 0.33 79 1020.4
20260507010016 8 306 0.0 3.2 0.00 0.33 0.33 75 1020.1
20260507004517 8 306 0.0 3.2 0.00 0.33 0.33 76 1019.9
20260507003011 8 344 1.6 4.8 0.00 0.33 0.33 74 1019.8
20260507001504 8 5 0.0 1.6 0.00 0.33 0.33 74 1019.8
20260506233004 8 89 1.6 4.8 0.00 0.33 0.33 76 1019.7
20260506231506 8 89 1.6 8.0 0.00 0.33 0.33 76 1019.7
20260506230015 8 35 0.0 6.4 0.00 0.33 0.33 77 1019.5
20260506224520 8 329 0.0 8.0 0.00 0.33 0.33 76 1019.7
20260506221506 8 86 3.2 9.7 0.03 0.33 0.33 74 1019.6
20260506214520 8 128 0.0 4.8 0.03 0.33 0.33 74 1019.6
20260506213003 7 128 1.6 8.0 0.03 0.33 0.33 74 1019.7
20260506211505 7 205 0.0 4.8 0.00 0.30 0.30 77 1019.8
20260506210015 7 101 1.6 6.4 0.00 0.30 0.30 77 1020.0
20260506204524 7 48 1.6 12.9 0.00 0.30 0.30 81 1020.1
20260506203012 7 128 3.2 12.9 0.00 0.30 0.30 80 1020.1
20260506201515 7 108 1.6 12.9 0.00 0.30 0.30 82 1020.3
20260506200018 7 59 1.6 12.9 0.00 0.30 0.30 85 1020.2
20260506194524 6 82 3.2 11.3 0.00 0.30 0.30 86 1020.3
20260506193008 6 93 3.2 16.1 0.00 0.30 0.30 86 1020.2
20260506191503 6 90 6.4 14.5 0.00 0.30 0.30 87 1020.1
20260506190004 6 186 3.2 12.9 0.00 0.30 0.30 89 1020.3
20260506181503 5 76 6.4 16.1 0.10 0.30 0.30 90 1020.7
20260506180006 5 122 1.6 14.5 0.13 0.30 0.30 90 1020.8
20260506171503 5 63 6.4 12.9 0.08 0.20 0.20 92 1020.7
20260506170009 5 62 4.8 14.5 0.05 0.18 0.18 92 1020.8
20260506164508 5 69 6.4 11.3 0.03 0.15 0.15 92 1020.7
20260506163014 5 43 9.7 16.1 0.03 0.15 0.15 92 1020.5
20260506161503 5 28 8.0 17.7 0.00 0.13 0.13 92 1020.4
20260506160007 5 46 11.3 17.7 0.00 0.13 0.13 91 1020.1
20260506154510 5 91 6.4 14.5 0.00 0.13 0.13 92 1019.7
20260506153020 5 30 6.4 11.3 0.00 0.13 0.13 92 1020.1
20260506151503 5 69 4.8 11.3 0.03 0.13 0.13 91 1020.0
20260506150005 4 53 6.4 14.5 0.03 0.13 0.13 92 1019.8
20260506144524 4 51 6.4 14.5 0.03 0.13 0.13 91 1019.7
20260506143020 4 42 8.0 17.7 0.03 0.13 0.13 91 1019.7
20260506141503 5 46 6.4 9.7 0.00 0.10 0.10 91 1019.8
20260506140010 5 69 3.2 6.4 0.00 0.10 0.10 91 1020.0
20260506134511 4 63 6.4 9.7 0.00 0.10 0.10 91 1019.6
20260506133019 4 61 3.2 6.4 0.00 0.10 0.10 91 1019.9
20260506131504 4 84 0.0 4.8 0.00 0.10 0.10 91 1019.7
20260506130010 4 36 1.6 4.8 0.00 0.10 0.10 91 1019.4